CAPE
671 898 991 944 949 835 696 665 652 696 740 875 911 690 533 581 642 652 532 268 60 1 0 0 0 0 0 2 29 109 71 108
459 697 900 876 794 644 559 548 516 559 611 703 612 507 383 430 422 533 368 158 19 0 0 0 0 0 0 0 0 8 0 0
352 487 592 581 608 600 527 480 385 453 523 503 361 293 219 321 218 281 203 22 0 0 0 0 0 0 0 0 0 0 0 0
262 270 278 251 579 539 363 435 296 303 308 254 152 82 46 187 152 139 73 0 0 0 0 0 0 0 0 0 0 0 0 0
193 181 130 177 319 257 165 219 100 77 56 75 34 18 15 56 8 25 1 0 0 0 0 0 0 0 0 0 0 0 0 0
318 131 118 93 115 118 89 105 49 33 14 7 0 0 0 0 0 0 0 0 0 0 0 0 0 0 0 0 0 0 0 0
559 204 132 99 145 17 23 23 26 17 3 22 3 0 0 0 0 0 0 0 0 0 0 0 0 0 0 0 0 0 0 0
953 455 244 192 355 110 7 6 0 1 13 39 25 0 0 34 0 0 0 0 0 0 0 0 0 4 28 2 11 6 0 0
1392 1038 714 534 659 362 127 30 8 21 31 54 125 63 50 121 97 56 54 33 32 18 78 52 152 55 67 14 1 0 0 0
1726 1624 1177 1007 914 701 448 187 117 117 129 154 254 276 146 162 167 175 164 129 122 56 23 24 2 0 0 0 0 0 0 0
1671 1601 1415 1114 839 750 661 486 341 317 252 321 338 380 262 189 176 182 134 128 75 18 0 0 0 0 0 0 0 0 0 0
1526 1539 1472 1118 887 586 395 375 243 496 383 309 325 419 338 210 152 105 77 33 7 0 0 0 0 0 0 0 0 0 0 0
1405 1519 1454 1163 948 684 566 538 218 176 253 232 242 304 356 198 103 37 13 39 40 0 0 0 0 0 0 0 0 0 0 0
1363 1482 1377 1330 1232 1083 782 517 237 233 247 269 327 351 336 213 86 21 2 0 0 0 0 0 0 0 0 0 0 0 0 0
1444 1446 1411 1377 1392 763 329 167 171 253 328 336 356 344 304 225 12 0 0 0 0 0 0 0 0 0 0 0 0 0 0 0
1463 1472 1444 1337 1153 827 600 606 461 288 267 267 108 0 0 0 0 0 0 0 0 0 0 0 0 0 0 0 0 0 0 0
1388 1566 1568 1301 929 848 536 484 140 143 80 82 0 0 0 0 0 0 0 0 0 0 0 0 0 0 0 0 0 0 0 0
1337 1550 1583 1014 1007 657 595 281 0 16 6 0 0 0 0 0 0 0 0 0 0 0 0 0 0 0 0 0 0 0 0 0
1114 1236 1156 913 697 437 323 4 0 0 0 0 0 0 0 0 0 0 0 0 0 0 0 0 0 0 0 0 0 0 0 0
1074 1160 1064 624 480 122 0 0 0 0 0 0 0 0 0 0 0 0 0 0 0 0 0 0 0 0 0 0 0 0 0 0
CIN
-560 -447 -389 -370 -318 -296 -283 -269 -246 -220 -205 -162 -148 -194 -229 -208 -184 -155 -174 -233 -356 -43 -0 -0 -0 -0 -0 -282 -668 -549 -605 -562
-645 -513 -415 -380 -357 -362 -319 -272 -268 -227 -206 -181 -190 -224 -261 -243 -227 -173 -192 -251 -397 -0 -0 -0 -0 -0 -0 -0 -0 -705 -0 -0
-684 -589 -518 -482 -422 -373 -343 -287 -279 -239 -196 -187 -220 -250 -287 -256 -280 -239 -244 -325 -0 -0 -0 -0 -0 -0 -0 -0 -0 -0 -0 -0
-725 -685 -648 -614 -423 -398 -419 -313 -307 -271 -243 -248 -281 -312 -371 -274 -281 -266 -294 -0 -0 -0 -0 -0 -0 -0 -0 -0 -0 -0 -0 -0
-740 -711 -714 -654 -521 -521 -535 -445 -452 -415 -395 -343 -363 -205 -358 -329 -422 -352 -52 -0 -0 -0 -0 -0 -0 -0 -0 -0 -0 -0 -0 -0
-694 -754 -716 -701 -640 -602 -585 -550 -541 -499 -492 -451 -85 -0 -0 -0 -0 -0 -0 -0 -0 -0 -0 -0 -0 -0 -0 -0 -0 -0 -0 -0
-616 -732 -743 -707 -631 -703 -649 -626 -578 -559 -537 -469 -373 -0 -0 -0 -0 -0 -0 -0 -0 -0 -0 -0 -0 -0 -0 -0 -0 -0 -0 -0
-498 -603 -656 -644 -528 -622 -677 -649 -0 -394 -512 -443 -424 -0 -196 -288 -0 -0 -0 -0 -0 -0 -0 -0 -0 -211 -303 -335 -415 -279 -0 -0
-425 -443 -469 -501 -433 -478 -543 -568 -583 -517 -505 -440 -321 -376 -361 -238 -229 -261 -257 -308 -293 -321 -229 -241 -139 -214 -197 -333 -28 -8 -0 -0
-354 -325 -347 -357 -364 -380 -410 -475 -487 -435 -399 -347 -223 -197 -247 -213 -212 -202 -193 -195 -200 -234 -295 -286 -302 -0 -0 -0 -0 -0 -0 -0
-356 -330 -333 -330 -362 -356 -345 -355 -367 -342 -309 -249 -197 -154 -171 -183 -200 -192 -197 -180 -219 -292 -0 -23 -0 -0 -0 -0 -0 -0 -0 -0
-392 -365 -326 -316 -335 -384 -415 -386 -400 -279 -291 -264 -216 -143 -157 -165 -171 -210 -227 -261 -195 -0 -0 -0 -0 -0 -0 -0 -0 -0 -0 -0
-378 -373 -346 -315 -314 -340 -318 -307 -382 -372 -313 -279 -239 -180 -141 -172 -194 -274 -284 -190 -187 -0 -0 -0 -0 -0 -0 -0 -0 -0 -0 -0
-393 -383 -373 -336 -312 -286 -267 -285 -337 -316 -287 -238 -171 -145 -133 -172 -200 -233 -204 -0 -0 -0 -0 -0 -0 -0 -0 -0 -0 -0 -0 -0
-418 -434 -435 -372 -307 -348 -401 -381 -333 -279 -260 -222 -184 -153 -143 -166 -145 -0 -0 -0 -0 -0 -0 -0 -0 -0 -0 -0 -0 -0 -0 -0
-427 -446 -427 -374 -356 -354 -359 -311 -296 -341 -302 -233 -229 -0 -0 -0 -0 -0 -0 -0 -0 -0 -0 -0 -0 -0 -0 -0 -0 -0 -0 -0
-422 -429 -392 -368 -416 -355 -379 -312 -405 -398 -409 -328 -0 -0 -0 -0 -0 -0 -0 -0 -0 -0 -0 -0 -0 -0 -0 -0 -0 -0 -0 -0
-373 -380 -342 -420 -368 -406 -362 -401 -0 -482 -147 -0 -0 -0 -0 -0 -0 -0 -0 -0 -0 -0 -0 -0 -0 -0 -0 -0 -0 -0 -0 -0
-412 -371 -361 -419 -438 -446 -417 -294 -0 -0 -0 -0 -0 -0 -0 -0 -0 -0 -0 -0 -0 -0 -0 -0 -0 -0 -0 -0 -0 -0 -0 -0
-409 -376 -336 -424 -454 -580 -0 -0 -0 -0 -0 -0 -0 -0 -0 -0 -0 -0 -0 -0 -0 -0 -0 -0 -0 -0 -0 -0 -0 -0 -0 -0
Wind_Speed
10 10 12 13 13 14 14 15 15 14 14 13 13 13 13 12 11 10 9 7 5 5 5 5 3 2 2 4 4 5 3 1
11 10 10 10 10 13 13 13 14 14 14 13 12 13 13 12 12 10 10 8 6 5 4 4 3 3 4 4 6 8 3 2
10 10 10 9 9 10 12 14 14 14 13 12 11 6 8 9 9 11 10 9 8 6 5 4 3 4 6 7 6 3 4 2
11 11 11 9 8 8 8 9 7 8 8 9 5 5 6 7 8 10 10 10 9 7 6 5 3 2 3 5 3 5 3 2
12 11 10 11 8 7 5 4 5 5 7 7 5 4 4 4 3 4 4 7 3 5 4 3 4 3 4 3 4 5 3 2
14 14 13 11 6 7 7 6 6 5 7 9 6 4 5 4 3 4 4 3 4 4 3 4 5 5 6 5 5 4 3 2
15 15 14 13 10 8 7 8 7 7 7 9 7 6 5 5 4 4 4 4 4 4 4 4 5 5 5 6 5 6 5 3
16 15 15 14 11 11 9 8 8 7 7 8 9 7 5 6 6 5 5 5 4 4 4 4 4 4 5 5 5 4 4 5
19 18 15 15 14 11 9 8 8 8 7 8 10 9 8 8 7 6 6 5 6 4 4 3 3 2 3 1 1 2 2 4
18 15 17 15 14 11 9 9 8 7 7 7 10 10 8 6 6 6 5 4 4 4 3 2 2 2 2 4 3 3 5 6
18 18 18 17 12 10 9 10 8 7 6 7 10 10 9 7 5 5 5 4 4 4 2 3 3 3 4 4 4 4 5 5
19 16 17 16 10 8 4 8 6 8 7 7 8 7 8 6 4 5 5 5 4 4 4 3 2 2 2 4 4 4 4 5
19 18 16 13 11 11 9 11 7 5 6 7 7 7 8 8 4 5 4 5 5 5 2 3 1 2 2 3 4 6 6 4
19 19 19 16 12 11 6 8 5 6 6 7 9 10 10 9 8 6 6 4 4 4 3 3 2 2 2 1 4 5 4 2
21 22 22 20 16 9 5 5 4 4 7 5 4 7 8 8 7 6 5 5 5 3 4 5 3 1 2 3 0 4 4 3
20 21 21 19 18 16 19 14 12 6 6 5 4 6 7 7 8 7 7 5 6 4 4 3 3 3 1 2 1 3 3 6
18 19 19 18 18 18 15 13 6 8 7 9 8 6 8 9 9 8 7 5 5 6 5 4 2 3 2 1 1 2 4 4
14 16 17 17 18 17 19 16 12 11 10 8 7 7 6 7 8 7 7 7 6 5 5 4 3 3 0 1 2 2 2 3
12 16 17 18 18 16 15 14 15 16 14 11 12 8 5 7 9 7 4 5 5 5 6 4 3 3 2 1 1 2 2 3
16 18 16 15 15 12 10 11 8 9 13 12 12 10 8 8 9 10 8 7 6 5 4 4 3 4 3 1 1 1 1 1
Wind_Direction
156 164 167 161 164 162 158 158 159 161 156 154 153 152 153 155 155 155 151 156 164 172 170 163 182 211 252 303 314 314 109 276
156 161 165 168 174 163 160 160 160 164 160 158 159 161 162 161 161 163 160 162 175 193 193 194 197 243 268 270 290 310 319 188
161 163 168 168 168 171 162 166 165 165 163 163 158 168 168 166 169 170 169 174 181 198 203 219 239 260 276 276 273 288 301 311
175 171 171 164 170 167 163 170 171 169 166 167 165 167 173 166 173 178 179 180 185 196 212 227 256 273 289 300 297 288 282 268
180 174 172 171 172 164 165 166 165 169 162 161 162 166 172 179 167 175 173 189 184 191 205 217 226 229 261 255 247 271 283 288
175 178 174 179 164 174 171 168 172 174 174 167 165 170 181 185 179 173 175 172 195 200 199 217 234 230 233 240 234 233 241 260
182 176 179 180 170 174 176 181 181 179 179 180 174 179 180 169 176 177 184 169 187 213 213 215 226 225 232 221 221 239 246 254
176 182 180 180 181 179 182 181 177 177 185 188 180 180 170 172 177 187 183 186 196 199 209 224 228 218 230 233 251 273 259 258
178 180 180 183 185 180 178 182 173 182 187 186 188 183 182 178 176 184 193 188 191 196 214 222 237 227 236 236 212 308 299 281
177 176 183 180 185 181 181 180 176 179 183 188 191 191 179 176 180 190 184 175 185 183 188 189 189 178 235 257 269 271 268 271
177 178 181 181 175 172 177 176 178 170 174 185 189 188 181 181 182 179 171 181 181 169 164 162 181 222 238 263 275 278 273 278
175 176 179 176 168 161 151 174 176 168 170 180 174 182 179 173 178 174 169 160 163 169 167 181 172 212 292 287 278 273 259 248
176 170 174 166 170 171 177 188 181 170 171 175 181 179 181 170 168 163 167 168 178 175 140 151 73 65 29 323 287 258 265 267
174 178 171 177 177 180 178 176 190 173 160 177 183 182 181 170 161 172 160 130 139 134 130 111 96 28 128 103 330 328 349 325
182 180 178 179 172 150 122 108 106 152 177 172 168 164 162 163 142 140 133 123 134 123 118 124 143 26 81 150 288 255 330 334
183 179 178 178 168 165 170 176 176 185 165 152 129 126 120 119 117 124 127 125 127 127 124 124 122 154 9 52 81 150 250 314
186 182 179 175 174 173 170 176 165 143 136 145 132 118 128 130 128 126 119 114 118 122 110 108 94 113 143 127 289 238 232 238
183 179 178 170 175 173 177 166 152 150 153 148 149 137 132 128 121 120 119 125 113 106 104 104 126 110 96 185 183 249 266 268
170 174 176 174 172 169 170 166 159 159 158 155 150 147 148 141 130 111 106 98 97 106 108 96 84 103 84 44 14 301 316 308
172 173 170 170 165 155 150 152 165 164 164 159 159 159 146 138 129 123 129 117 112 108 102 116 122 107 94 62 238 298 318 289